sat.trackr.live / text

‹ back to catalog

STARLINK-35878

NORAD 67178 · 2025-303R

PAYLOAD ACTIVE UNKNOWN

§ Identity

Operator
Country
US
Launch date
2025-12-17
Launch site
AFETR
Launch vehicle
Mass (kg)
RCS (m²)

Purposes: comms

External: N2YO · Heavens-Above · Gunter

§ Orbital elements

Epoch: 2026-05-24T23:35:52.812096Z

Period
94.27 min
Inclination
42.9994°
Eccentricity
0.0000047
Mean motion
15.27601150 rev/d
Perigee alt
483.0 km
Apogee alt
483.0 km
Semi-major
6,861.1 km
B*
4.5881e-4
RAAN
239.8120°
Arg perigee
277.4930°
Mean anomaly
82.5916°
Rev number
2,440

§ Raw data

STARLINK-358781 67178U 25303R   26144.98325014  .00012393  00000+0  45881-3 0  99972 67178  42.9994 239.8120 0000047 277.4930  82.5916 15.27601150 24405

JSON: /api/v1/satellites/67178 · /tle

For live sub-satellite position, see the globe view (requires WebGL).

§ Visibility from observer

Set your observer location to see the next 7 days of passes ≥ 10°. The values pass through the URL so the page stays shareable.

No JS? Fill the form by hand. The geolocation button needs JavaScript.